Weather History for Farmingdale, NY

Change the Weather History Date:

Saturday, February 23, 2013

  Actual Average Record
Temperature  
Mean Temperature 39 °F -  
Max Temperature 42 °F 40 °F 57 °F (2012)
Min Temperature 36 °F 27 °F 14 °F (1999)
Degree Days  
Heating Degree Days 26    
Moisture  
Dew Point 37 °F    
Average Humidity 92    
Maximum Humidity 100    
Minimum Humidity 76    
Precipitation  
Precipitation 0.27 in - - ()
Sea Level Pressure  
Sea Level Pressure 30.03 in    
Wind  
Wind Speed 9 mph (East)    
Max Wind Speed 20 mph    
Max Gust Speed 26 mph    
Visibility 5 miles    
Events Rain    
Averages and records for this station are not official NWS values.
T = Trace of Precipitation, MM = Missing Value Source: NWS Daily Summary

Daily Weather History Graph

Daily Weather History Graph

Search for Another Location

Airport:

Trip Planner

Search our weather history database for the weather conditions in past years. The results will help you decide how hot, cold, wet, or windy it might be!

Date:

Astronomy

Feb. 23, 2013 Rise Set
Actual Time 6:36 AM EST 5:38 PM EST
Civil Twilight 6:08 AM EST 6:05 PM EST
Nautical Twilight 5:36 AM EST 6:37 PM EST
Astronomical Twilight 5:05 AM EST 7:09 PM EST
Moon 3:45 PM EST (2/23) 4:57 AM EST (2/23)
Length of Visible Light 11h 57m
Length of Day
11h 02m
Waxing Gibbous, 95% of the Moon is Illuminated
Feb 23
Waxing Gibbous
Feb 25
Full
Mar 4
Last Quarter
Mar 11
New
Mar 19
First Quarter

Hourly Weather History & Observations

Time (EST) Temp. Windchill Dew Point Humidity Pressure Visibility Wind Dir Wind Speed Gust Speed Precip Events Conditions
12:53 AM 36.0 °F 31.1 °F 30.0 °F 79% 30.29 in 10.0 mi ESE 5.8 mph - 0.00 in   Overcast
1:53 AM 37.0 °F 32.4 °F 30.0 °F 76% 30.27 in 10.0 mi ESE 5.8 mph - N/A   Overcast
2:53 AM 36.0 °F 30.3 °F 32.0 °F 86% 30.23 in 10.0 mi ESE 6.9 mph - 0.00 in   Overcast
3:53 AM 36.0 °F 30.3 °F 33.1 °F 89% 30.21 in 10.0 mi East 6.9 mph - 0.00 in   Overcast
4:53 AM 37.0 °F 32.4 °F 32.0 °F 82% 30.20 in 10.0 mi ESE 5.8 mph - N/A   Overcast
5:53 AM 37.9 °F 32.1 °F 33.1 °F 83% 30.19 in 10.0 mi ESE 8.1 mph - N/A   Overcast
6:53 AM 37.9 °F 32.7 °F 34.0 °F 86% 30.18 in 10.0 mi ESE 6.9 mph - N/A   Overcast
7:53 AM 37.9 °F 32.1 °F 36.0 °F 93% 30.16 in 5.0 mi East 8.1 mph - N/A   Overcast
8:53 AM 39.9 °F 32.9 °F 37.0 °F 89% 30.14 in 10.0 mi ESE 11.5 mph 18.4 mph N/A   Overcast
9:42 AM 39.2 °F 32.5 °F 37.4 °F 93% 30.11 in 5.0 mi ESE 10.4 mph - 0.00 in   Overcast
9:53 AM 39.9 °F 33.9 °F 37.9 °F 93% 30.11 in 6.0 mi East 9.2 mph - 0.00 in   Overcast
10:53 AM 41.0 °F 34.3 °F 39.0 °F 93% 30.10 in 1.5 mi ESE 11.5 mph - 0.00 in Rain Light Rain
11:29 AM 42.8 °F 37.0 °F 39.2 °F 87% 30.08 in 2.0 mi ESE 10.4 mph 19.6 mph 0.01 in Rain Light Rain
11:37 AM 42.8 °F 36.2 °F 39.2 °F 87% 30.07 in 2.0 mi ESE 12.7 mph 19.6 mph 0.02 in Rain Light Rain
11:53 AM 42.1 °F 35.2 °F 41.0 °F 96% 30.06 in 4.0 mi ESE 12.7 mph - 0.02 in Rain Light Rain
12:07 PM 42.8 °F 35.8 °F 41.0 °F 93% 30.05 in 1.8 mi ESE 13.8 mph 19.6 mph 0.00 in Rain Light Rain
12:18 PM 42.8 °F 35.8 °F 41.0 °F 93% 30.04 in 3.0 mi ESE 13.8 mph 19.6 mph 0.01 in Rain Light Rain
1:11 PM 42.8 °F 36.6 °F 41.0 °F 93% 30.02 in 2.0 mi ESE 11.5 mph 19.6 mph 0.00 in Rain Light Rain
1:33 PM 42.8 °F 35.4 °F 41.0 °F 93% 30.00 in 4.0 mi ESE 15.0 mph - 0.00 in Rain Light Rain
1:49 PM 42.8 °F 36.2 °F 41.0 °F 93% 30.00 in 2.5 mi ESE 12.7 mph 21.9 mph 0.01 in Rain Light Rain
1:53 PM 42.1 °F 34.2 °F 41.0 °F 96% 30.00 in 3.0 mi East 16.1 mph 21.9 mph 0.01 in Rain Light Rain
2:06 PM 42.8 °F 36.2 °F 41.0 °F 93% 29.99 in 2.5 mi East 12.7 mph 21.9 mph 0.00 in Rain Light Rain
2:53 PM 41.0 °F 32.8 °F 39.9 °F 96% 29.97 in 2.0 mi East 16.1 mph 25.3 mph 0.02 in Rain Light Rain
3:06 PM 41.0 °F 31.9 °F 39.2 °F 93% 29.96 in 3.0 mi East 19.6 mph 26.5 mph 0.01 in Rain Light Rain
3:34 PM 41.0 °F 33.9 °F 39.2 °F 93% 29.98 in 1.8 mi East 12.7 mph 20.7 mph 0.04 in Rain Rain
3:53 PM 39.9 °F 33.9 °F 39.0 °F 97% 29.98 in 1.8 mi East 9.2 mph 18.4 mph 0.08 in Rain Rain
4:13 PM 39.2 °F 32.0 °F 37.4 °F 93% 29.96 in 2.0 mi East 11.5 mph - 0.06 in Rain Light Rain
4:26 PM 39.2 °F 33.6 °F 37.4 °F 93% 29.96 in 1.8 mi East 8.1 mph - 0.07 in Rain Light Rain
4:33 PM 39.2 °F 34.2 °F 37.4 °F 93% 29.96 in 2.0 mi ENE 6.9 mph - 0.08 in Rain Light Rain
4:53 PM 39.0 °F 31.8 °F 37.9 °F 96% 29.95 in 2.0 mi ENE 11.5 mph - 0.11 in Rain Light Rain
5:02 PM 39.2 °F 33.0 °F 37.4 °F 93% 29.95 in 1.5 mi ENE 9.2 mph - 0.01 in Rain Rain
5:18 PM 39.2 °F 33.6 °F 37.4 °F 93% 29.95 in 2.0 mi ENE 8.1 mph - 0.02 in Rain Light Rain
5:39 PM 37.4 °F 30.8 °F 37.4 °F 100% 29.93 in 3.0 mi ENE 9.2 mph - 0.02 in Rain Light Rain
5:53 PM 37.9 °F 31.5 °F 37.0 °F 97% 29.93 in 2.5 mi NE 9.2 mph - 0.02 in Rain Light Rain
6:00 PM 37.4 °F 30.3 °F 37.4 °F 100% 29.93 in 3.0 mi NE 10.4 mph - 0.01 in Rain Light Rain
6:53 PM 37.0 °F 28.9 °F 36.0 °F 96% 29.92 in 3.0 mi NE 12.7 mph - 0.01 in Rain Light Rain
7:53 PM 36.0 °F 28.5 °F 35.1 °F 97% 29.91 in 3.0 mi NE 10.4 mph - 0.00 in   Overcast
8:53 PM 36.0 °F 28.0 °F 35.1 °F 97% 29.86 in 10.0 mi ENE 11.5 mph 19.6 mph N/A   Overcast
9:53 PM 36.0 °F 27.5 °F 35.1 °F 97% 29.82 in 6.0 mi NE 12.7 mph 21.9 mph N/A   Overcast
10:53 PM 36.0 °F 27.5 °F 35.1 °F 97% 29.82 in 6.0 mi NE 12.7 mph 19.6 mph N/A   Overcast
11:53 PM 36.0 °F 27.1 °F 34.0 °F 93% 29.79 in 6.0 mi NE 13.8 mph - N/A   Overcast